Theta_e
301 301 301 302 302 302 303 303 303 303 303 303 303 303 303 303 304 305 307 309 309 310 310 317 318 318 318 319 317 317 313 313 315 318 317 320 320 324 325 326 326 343 349 347 350
303 303 303 303 303 303 303 303 304 305 305 306 306 305 304 304 306 309 315 314 314 311 312 312 312 318 318 320 320 316 312 314 315 316 316 317 318 320 322 322 323 348 347 349 353
304 304 305 305 305 305 306 306 305 305 306 307 306 306 305 303 306 313 319 316 314 314 312 313 315 315 314 317 319 317 318 316 317 318 319 318 319 320 321 320 323 338 345 350 354
307 307 308 308 308 308 309 307 306 306 306 306 305 304 303 303 308 313 317 319 315 314 313 312 313 313 311 313 317 318 318 319 319 320 319 318 319 319 319 320 321 323 346 348 350
308 308 308 309 309 309 310 309 307 308 307 307 307 304 305 307 309 310 312 313 314 314 314 313 313 313 311 312 315 317 319 321 321 320 320 320 319 319 318 319 321 321 343 347 348
310 310 310 311 310 310 310 308 308 309 308 308 308 307 306 308 310 312 315 315 314 313 314 314 316 313 312 312 312 316 317 318 320 320 320 318 318 318 319 319 320 321 324 349 347
312 311 311 311 311 311 310 308 310 311 312 311 310 308 308 312 311 311 316 315 313 313 315 318 320 321 317 315 317 316 315 316 317 318 317 320 319 318 319 319 320 320 321 337 352
312 312 312 311 312 311 312 309 312 313 313 313 312 309 309 313 312 313 313 315 313 313 313 315 318 320 322 320 319 319 318 319 318 318 319 320 321 321 323 321 319 320 321 322 336
312 311 311 311 311 312 310 311 314 314 313 313 312 312 313 314 316 316 315 314 314 314 313 313 313 315 317 317 316 317 321 320 320 318 319 318 321 321 322 322 321 321 321 320 322
309 309 310 309 310 311 310 313 314 313 313 312 313 312 312 315 316 315 316 315 315 313 313 313 313 312 312 315 321 320 320 319 321 319 319 318 320 320 322 323 320 321 322 319 321
307 307 308 307 309 309 310 314 313 313 312 312 311 311 311 312 311 312 312 314 313 313 316 314 311 312 313 314 316 318 319 320 320 319 319 320 320 320 320 320 320 320 321 320 321
307 307 306 305 307 309 311 313 312 312 311 311 311 311 312 312 311 313 313 312 313 318 317 318 316 313 313 314 315 316 318 319 318 318 317 317 318 318 318 319 321 321 321 323 322
306 305 306 305 307 309 311 313 311 311 311 312 313 312 308 313 311 315 317 315 311 313 318 319 318 318 316 314 315 316 316 316 317 317 316 316 317 317 317 319 321 322 322 323 323
305 305 307 306 306 309 314 310 310 310 312 314 311 309 307 310 312 309 307 314 313 317 316 316 315 316 316 318 318 318 316 317 319 318 315 316 318 317 316 317 320 321 321 321 323
304 305 306 304 306 309 310 308 308 311 314 313 308 308 306 307 306 307 307 307 316 314 316 317 317 317 317 318 319 321 319 320 321 320 320 320 315 315 316 318 318 318 322 322 321
303 304 305 306 308 311 309 309 309 312 315 313 308 306 306 306 306 307 307 307 307 313 311 317 316 316 316 317 317 318 319 320 321 320 322 320 318 319 315 316 318 318 321 322 322
303 304 308 309 310 311 308 308 309 314 314 309 307 306 306 306 306 307 307 306 307 311 308 311 312 313 316 317 316 318 320 323 324 324 326 320 320 319 315 315 317 318 319 322 320
303 305 311 312 312 311 310 306 310 315 312 308 307 306 306 306 306 307 307 306 306 307 311 313 313 313 315 316 315 316 317 323 324 325 320 319 322 319 318 316 318 319 320 322 324
303 307 312 311 312 312 309 306 311 312 309 308 306 306 305 306 306 307 306 307 309 310 311 313 317 313 314 315 317 318 318 318 321 320 322 322 320 318 317 318 317 317 319 321 322
304 307 311 308 311 311 305 307 310 310 308 308 307 306 307 307 307 306 307 308 309 309 310 312 313 314 315 316 316 316 318 318 314 321 323 320 320 319 318 320 320 322 321 322 321
305 305 309 309 308 308 306 307 306 306 308 309 308 307 307 308 307 307 307 309 309 308 311 313 315 315 314 317 317 318 319 318 316 319 319 318 316 320 318 323 323 322 323 326 328
303 301 308 307 304 303 302 304 305 307 308 308 307 307 307 308 308 308 309 308 309 309 314 313 312 315 315 314 317 319 316 319 318 319 320 318 318 321 323 324 324 323 324 330 331
303 305 307 304 301 301 303 304 305 306 307 306 305 306 307 306 307 308 307 308 308 309 311 312 314 312 308 317 315 316 315 316 318 319 318 319 318 320 320 320 321 321 322 332 341
304 303 303 303 301 301 302 303 305 305 306 304 305 306 304 306 306 307 307 308 308 308 310 313 312 312 313 313 314 315 314 316 317 321 321 321 320 320 320 321 321 323 323 322 341
304 301 301 299 299 299 300 302 305 305 304 304 305 305 307 308 307 308 308 308 307 309 310 311 310 311 312 313 313 313 314 313 316 318 322 320 321 323 324 323 320 320 322 320 332
300 300 300 299 301 300 300 301 304 304 303 304 304 305 304 309 309 309 307 307 307 306 308 310 314 310 310 312 313 314 313 312 314 317 317 318 320 323 324 324 323 324 320 325 336
297 299 300 300 299 299 299 301 303 302 303 303 304 305 305 306 305 305 305 305 306 306 306 307 306 310 311 312 312 314 320 321 321 315 317 320 320 326 325 326 326 325 327 326 326
Wind_Speed
26 26 26 27 27 29 30 31 30 29 26 26 24 24 22 25 28 31 31 22 17 16 21 17 13 14 13 10 18 5 3 6 7 6 7 13 5 13 15 23 22 17 15 38 44
30 30 31 32 32 33 34 34 35 35 34 34 33 33 33 29 29 34 6 2 4 15 21 23 18 15 7 10 9 7 5 11 7 10 8 13 13 12 14 22 21 10 18 42 46
30 30 30 30 31 31 31 31 31 31 32 31 30 30 31 30 25 2 2 1 4 3 17 16 12 9 7 13 11 9 12 10 8 22 26 23 30 17 11 8 12 9 35 43 49
28 28 27 27 28 29 30 31 32 34 31 30 30 28 22 19 5 7 9 7 5 7 12 16 15 7 6 8 18 9 13 21 15 22 21 14 23 25 13 20 23 16 33 46 46
28 28 28 28 30 30 30 29 30 30 29 29 30 28 19 13 19 10 11 12 9 7 16 21 18 12 6 5 14 11 11 19 26 27 31 31 29 28 26 34 32 20 21 36 44
28 28 29 30 31 32 32 31 31 27 28 29 26 23 15 9 10 7 7 11 9 6 13 20 10 19 7 8 6 7 10 20 27 27 27 20 23 16 44 31 29 25 16 38 42
32 32 32 33 35 36 37 36 28 28 30 25 22 17 18 43 21 11 11 15 8 6 11 16 15 13 10 6 22 19 12 15 16 6 6 10 12 23 47 22 24 28 16 27 40
36 37 38 37 38 40 39 34 29 27 20 22 20 12 15 25 19 18 21 20 11 16 15 10 17 23 28 19 18 6 5 8 2 12 6 9 26 30 20 17 26 31 22 20 23
38 39 40 40 38 40 37 25 22 21 20 17 10 6 17 7 13 10 9 24 17 17 19 14 17 14 10 3 5 4 13 13 10 1 6 13 30 30 22 21 25 29 25 23 22
39 40 40 40 38 37 27 22 18 11 3 16 3 7 10 7 13 13 10 5 11 15 15 22 12 4 3 4 15 7 11 8 16 4 6 12 27 19 17 20 23 29 32 23 24
40 42 41 41 36 31 25 18 17 3 13 24 33 31 45 25 21 32 23 6 15 10 6 6 5 14 6 10 11 13 14 14 11 8 11 19 25 18 13 15 19 25 34 27 26
43 44 44 41 34 21 16 12 17 16 16 39 32 29 26 26 13 20 15 14 9 12 5 3 11 9 11 12 12 16 20 23 20 16 15 20 21 13 8 8 23 25 30 37 37
44 43 45 39 34 16 13 14 17 23 7 23 11 5 32 13 6 18 21 12 9 16 12 13 14 8 14 18 17 18 18 18 19 17 18 18 20 13 8 8 20 32 35 43 44
44 43 42 44 21 23 3 16 16 20 4 7 10 9 34 26 5 24 32 8 7 8 8 12 4 10 4 11 15 16 17 17 14 9 11 5 16 16 6 9 9 16 31 36 47
43 42 41 38 27 9 9 23 19 7 3 6 12 8 23 15 22 18 25 18 6 14 4 15 18 14 9 9 4 12 13 5 9 2 2 8 3 5 6 7 9 10 18 34 43
44 42 42 28 15 6 12 23 10 3 6 6 13 16 17 21 20 28 20 16 18 6 11 18 17 7 9 9 10 19 13 6 6 1 6 11 5 14 9 8 8 9 20 24 43
44 41 31 15 4 6 13 20 4 3 12 11 19 14 10 16 21 17 17 15 6 4 13 10 16 18 12 10 13 8 4 2 4 6 5 9 5 12 8 13 14 18 22 27 32
44 37 8 7 3 5 11 5 2 4 7 15 13 10 8 16 14 15 15 16 8 10 9 7 5 9 2 14 8 7 10 5 4 4 5 5 6 11 19 13 15 30 32 29 28
43 26 7 11 5 6 6 3 3 11 17 17 13 8 9 11 6 8 12 9 7 11 6 4 4 6 13 9 7 4 5 12 9 9 1 4 6 10 17 14 15 15 24 24 28
40 19 11 21 10 10 2 6 4 12 12 10 6 4 10 12 7 9 6 3 7 18 6 3 6 3 13 6 6 6 4 3 2 6 5 5 6 10 7 4 6 5 9 19 21
30 12 8 23 24 15 2 3 10 22 17 7 11 6 7 5 6 5 7 12 2 11 14 7 4 3 7 4 2 3 2 4 4 4 4 3 7 1 6 3 7 8 18 27 30
19 4 21 34 9 5 4 10 19 18 15 8 8 6 4 4 4 5 6 12 9 12 6 5 3 4 6 5 3 3 3 1 3 5 4 4 9 1 1 2 4 9 20 33 29
21 8 15 18 4 5 7 11 14 15 14 10 7 5 7 4 5 7 12 8 13 4 5 5 1 3 6 3 3 4 1 2 6 4 8 5 7 1 5 6 8 8 20 18 17
11 4 9 7 20 6 12 7 12 17 9 22 7 7 10 11 9 10 16 8 20 17 19 5 3 4 4 5 7 9 10 7 5 4 7 14 9 11 8 7 10 21 16 24 6
8 4 7 5 9 13 12 10 14 13 13 9 4 13 11 8 19 2 12 14 17 9 4 1 4 3 5 12 16 17 17 15 10 12 7 6 13 8 3 4 4 21 23 29 22
8 7 8 19 13 12 5 7 12 20 13 8 12 20 16 8 13 19 20 15 7 7 3 4 3 3 6 13 9 9 13 17 16 17 14 12 16 5 5 2 5 8 12 32 18
10 10 8 8 6 5 3 14 18 17 10 25 19 15 16 14 27 36 36 33 19 10 6 4 2 3 5 8 13 5 0 13 11 14 19 9 9 4 4 3 2 11 14 29 30
Wind_Direction
7 4 1 359 357 354 351 347 342 338 332 327 324 320 321 315 307 298 288 296 273 219 219 200 197 193 191 217 207 196 159 223 219 233 259 286 296 278 304 302 332 239 211 186 173
5 3 360 357 356 353 348 344 340 336 333 330 327 325 323 322 317 305 306 101 187 202 204 211 207 197 209 217 203 178 198 217 196 223 266 290 288 334 335 312 314 312 187 164 169
1 359 356 353 350 347 344 339 334 328 323 321 320 317 317 319 320 225 149 29 56 226 206 203 183 195 211 234 205 202 231 222 231 235 256 271 278 303 271 290 305 253 157 164 168
358 354 351 348 345 341 337 334 329 324 322 322 320 316 316 310 292 271 260 258 288 283 211 194 204 193 212 203 217 255 240 236 256 259 267 268 290 280 275 275 294 317 178 169 168
356 352 348 345 340 337 333 330 326 322 319 317 317 317 322 294 275 277 252 253 268 257 215 202 196 195 199 220 233 229 236 251 253 251 251 261 260 269 282 272 281 285 210 181 177
353 350 345 342 340 336 333 332 327 322 314 314 310 309 306 282 290 288 249 236 233 252 206 198 207 217 248 225 202 261 240 252 255 256 247 245 264 268 265 257 265 274 251 199 190
351 347 344 341 339 336 333 333 327 321 317 310 306 302 281 277 282 280 227 226 213 223 211 211 213 206 234 289 241 254 267 279 252 236 227 260 275 246 256 263 259 265 257 218 201
349 346 343 339 339 336 333 334 327 327 324 312 310 288 260 301 284 271 236 232 237 240 244 241 247 247 250 268 292 291 251 255 311 240 237 218 261 254 265 254 238 251 256 253 190
346 342 340 338 336 335 334 334 331 328 316 315 316 287 271 334 326 338 254 228 243 248 251 245 251 258 251 231 297 239 255 274 294 212 227 197 254 259 250 254 238 250 247 243 241
346 340 337 337 340 335 336 335 333 333 326 326 325 303 273 322 325 345 310 259 244 240 242 238 238 225 52 127 239 233 260 257 257 190 256 261 261 265 257 247 240 240 245 233 219
348 343 339 335 338 336 335 356 356 322 309 276 274 268 281 309 303 283 270 290 254 225 208 232 202 231 200 226 255 267 274 272 274 262 228 250 265 263 254 231 241 230 231 230 232
345 341 336 332 337 332 345 13 353 313 305 300 287 273 290 290 290 324 329 262 238 238 213 261 239 234 211 233 237 243 254 261 275 267 264 265 268 269 257 237 236 233 231 241 243
344 342 337 333 338 341 330 2 357 342 306 304 319 325 6 4 184 360 27 313 247 237 208 216 227 208 221 233 240 242 242 258 255 263 259 271 275 262 246 254 259 241 233 233 240
345 342 339 335 340 333 283 336 324 339 353 280 9 35 8 0 30 20 359 359 20 348 313 227 261 243 275 290 259 252 261 272 288 256 249 237 260 257 227 230 235 242 232 228 236
345 340 334 336 322 335 338 341 339 341 314 5 26 359 1 31 354 353 358 346 322 304 235 265 282 262 257 240 244 268 286 322 306 305 195 281 249 268 191 244 240 230 240 235 234
345 341 335 335 330 26 346 346 335 74 249 349 10 352 352 7 0 342 350 14 333 312 318 269 273 252 241 247 224 252 259 331 280 187 255 250 189 261 238 216 261 264 270 270 230
345 341 336 350 86 14 345 339 33 222 341 359 338 357 3 350 344 347 344 345 303 296 268 277 262 262 232 256 274 228 105 284 225 214 220 226 256 252 258 244 221 245 251 249 230
346 344 17 3 1 324 323 16 222 37 347 336 332 346 9 1 339 337 327 323 284 281 282 251 241 217 223 211 184 190 169 189 248 183 240 230 204 248 251 262 247 239 249 252 239
348 357 43 18 339 300 306 20 270 348 320 329 328 336 333 352 315 337 324 293 355 350 308 289 250 340 328 244 161 180 167 196 209 260 247 235 280 283 263 263 263 255 250 254 241
348 357 64 15 309 279 65 229 300 318 347 341 345 24 320 333 338 340 303 345 337 322 253 229 286 350 275 293 225 158 158 171 313 188 208 241 242 241 303 253 299 284 296 270 262
356 343 12 338 340 307 57 316 330 350 17 332 345 303 339 332 313 307 274 312 32 306 308 263 202 246 304 245 217 139 207 87 115 165 185 264 254 310 275 15 303 299 304 302 287
355 335 356 343 47 0 342 324 318 340 29 6 301 351 291 296 293 287 264 296 300 311 276 297 171 252 253 320 49 93 79 30 178 214 244 170 249 271 7 342 275 305 320 303 266
337 294 340 5 43 348 323 321 349 338 350 356 305 305 5 284 306 246 279 277 320 273 308 329 296 314 350 240 37 43 337 171 269 250 215 206 264 234 6 340 326 317 332 309 210
340 340 343 15 10 343 332 329 336 356 354 332 288 1 337 309 293 277 288 303 336 313 301 268 225 196 229 250 286 278 265 227 231 273 233 235 275 294 296 323 339 328 337 317 155
11 349 23 315 332 316 326 -0 339 352 338 359 310 332 333 295 304 210 318 312 318 294 307 102 244 246 263 269 269 270 273 268 221 233 246 238 229 261 227 268 343 333 313 288 268
6 359 317 298 312 328 335 346 328 337 329 330 324 319 316 281 279 302 304 295 279 292 347 356 278 299 268 271 272 276 275 270 242 230 241 250 275 216 198 192 60 352 258 258 107
0 338 321 284 305 330 289 333 318 337 308 318 313 320 314 298 298 284 275 271 251 267 294 276 256 360 273 316 306 293 84 312 291 219 216 211 228 134 224 62 170 140 80 61 64